Grub im Wienerwald
Wetterdaten: aktuell Samstag, 17.04.2021 16:30
Datum Zeit Temp. A. Feuchte A. Luftdruck Regen Wind Richtung Richtung Sonnenschein UV Solar Taupunkt Windchill Windben
17.04.2021 16:30 7,0 C 70 % 1018,1 hPa 0,0 l/m 5,1 km/h NW 324 0 min 0,0 UV-I 54 W/m 1,9 C 7,0 C 9,7 km/h
17.04.2021 16:27 7,1 C 70 % 1018,0 hPa 0,0 l/m 8,2 km/h NW 309 0 min 0,7 UV-I 56 W/m 2,0 C 5,7 C 14,5 km/h
17.04.2021 16:24 7,1 C 69 % 1018,1 hPa 0,0 l/m 7,5 km/h NW 306 0 min 0,7 UV-I 58 W/m 1,8 C 6,2 C 14,5 km/h
17.04.2021 16:21 7,2 C 69 % 1018,1 hPa 0,0 l/m 8,5 km/h NW 305 0 min 0,7 UV-I 58 W/m 1,9 C 5,5 C 12,9 km/h
17.04.2021 16:18 7,2 C 69 % 1018,0 hPa 0,0 l/m 9,0 km/h W 279 0 min 0,7 UV-I 62 W/m 1,9 C 5,2 C 16,1 km/h
17.04.2021 16:15 7,2 C 69 % 1018,0 hPa 0,0 l/m 6,8 km/h NW 323 0 min 0,7 UV-I 69 W/m 1,9 C 6,9 C 12,9 km/h
17.04.2021 16:12 7,3 C 70 % 1018,0 hPa 0,0 l/m 8,5 km/h NW 313 0 min 0,8 UV-I 76 W/m 2,2 C 5,6 C 14,5 km/h
17.04.2021 16:09 7,3 C 69 % 1018,0 hPa 0,0 l/m 7,2 km/h W-NW 294 0 min 0,8 UV-I 83 W/m 2,0 C 6,7 C 16,1 km/h
17.04.2021 16:06 7,3 C 70 % 1018,1 hPa 0,0 l/m 7,8 km/h NW 309 0 min 0,9 UV-I 90 W/m 2,2 C 6,2 C 12,9 km/h
17.04.2021 16:03 7,3 C 69 % 1018,0 hPa 0,0 l/m 9,9 km/h W-NW 299 0 min 0,9 UV-I 102 W/m 2,0 C 4,7 C 14,5 km/h
17.04.2021 16:00 7,3 C 69 % 1018,0 hPa 0,0 l/m 9,1 km/h W-NW 286 0 min 1,1 UV-I 123 W/m 2,0 C 5,2 C 17,7 km/h
17.04.2021 15:57 7,4 C 69 % 1018,0 hPa 0,0 l/m 8,8 km/h W-NW 284 0 min 1,2 UV-I 146 W/m 2,1 C 5,5 C 19,3 km/h
17.04.2021 15:54 7,4 C 69 % 1018,0 hPa 0,0 l/m 8,0 km/h W-NW 301 0 min 1,3 UV-I 156 W/m 2,1 C 6,1 C 12,9 km/h
17.04.2021 15:51 7,4 C 68 % 1018,0 hPa 0,0 l/m 8,8 km/h N-NW 330 0 min 1,1 UV-I 134 W/m 1,9 C 5,5 C 14,5 km/h
17.04.2021 15:48 7,5 C 68 % 1018,0 hPa 0,0 l/m 10,4 km/h NW 313 0 min 1,0 UV-I 113 W/m 2,0 C 4,6 C 16,1 km/h
17.04.2021 15:45 7,6 C 68 % 1018,0 hPa 0,0 l/m 8,8 km/h NW 304 0 min 1,0 UV-I 107 W/m 2,1 C 5,7 C 14,5 km/h
17.04.2021 15:42 7,7 C 68 % 1018,0 hPa 0,0 l/m 6,8 km/h NW 307 0 min 1,0 UV-I 113 W/m 2,2 C 7,4 C 12,9 km/h
17.04.2021 15:39 7,8 C 68 % 1018,0 hPa 0,0 l/m 8,7 km/h NW 305 0 min 1,0 UV-I 111 W/m 2,3 C 6,0 C 17,7 km/h
17.04.2021 15:36 7,8 C 68 % 1018,0 hPa 0,0 l/m 8,4 km/h W-NW 301 0 min 1,0 UV-I 109 W/m 2,3 C 6,2 C 19,3 km/h
17.04.2021 15:33 7,9 C 67 % 1018,1 hPa 0,0 l/m 7,6 km/h W-NW 284 0 min 1,1 UV-I 114 W/m 2,2 C 7,0 C 12,9 km/h
17.04.2021 15:30 7,9 C 67 % 1018,0 hPa 0,0 l/m 8,7 km/h NW 305 0 min 1,1 UV-I 128 W/m 2,2 C 6,1 C 16,1 km/h
17.04.2021 15:27 8,1 C 66 % 1017,9 hPa 0,0 l/m 11,0 km/h NW 307 0 min 1,2 UV-I 130 W/m 2,1 C 4,9 C 19,3 km/h
17.04.2021 15:24 8,1 C 66 % 1018,0 hPa 0,0 l/m 9,0 km/h N-NW 327 0 min 1,5 UV-I 183 W/m 2,1 C 6,1 C 16,1 km/h
17.04.2021 15:21 8,1 C 67 % 1018,0 hPa 0,0 l/m 7,9 km/h W-NW 285 0 min 1,7 UV-I 216 W/m 2,3 C 6,9 C 14,5 km/h
17.04.2021 15:18 8,1 C 68 % 1017,9 hPa 0,0 l/m 9,3 km/h W-NW 283 0 min 1,8 UV-I 239 W/m 2,6 C 5,9 C 16,1 km/h
17.04.2021 15:15 8,0 C 68 % 1017,9 hPa 0,0 l/m 7,3 km/h NW 310 0 min 2,1 UV-I 285 W/m 2,5 C 7,3 C 11,3 km/h
17.04.2021 15:12 8,1 C 66 % 1018,0 hPa 0,0 l/m 9,6 km/h NW 313 0 min 2,0 UV-I 279 W/m 2,1 C 5,8 C 19,3 km/h
17.04.2021 15:09 8,1 C 67 % 1018,0 hPa 0,0 l/m 9,7 km/h N-NW 346 0 min 2,1 UV-I 292 W/m 2,3 C 5,7 C 20,9 km/h
17.04.2021 15:06 8,1 C 67 % 1018,0 hPa 0,0 l/m 11,1 km/h W-NW 294 0 min 2,4 UV-I 325 W/m 2,3 C 4,8 C 22,5 km/h
17.04.2021 15:03 8,1 C 67 % 1018,0 hPa 0,0 l/m 9,7 km/h W 275 0 min 2,7 UV-I 374 W/m 2,3 C 5,7 C 22,5 km/h
17.04.2021 15:00 8,1 C 67 % 1018,0 hPa 0,0 l/m 11,3 km/h NW 306 3 min 2,8 UV-I 390 W/m 2,3 C 4,7 C 20,9 km/h
17.04.2021 14:57 8,1 C 67 % 1018,0 hPa 0,0 l/m 10,3 km/h NW 319 0 min 2,6 UV-I 318 W/m 2,3 C 5,3 C 16,1 km/h
17.04.2021 14:54 8,1 C 67 % 1018,0 hPa 0,0 l/m 9,4 km/h W-NW 294 0 min 2,5 UV-I 304 W/m 2,3 C 5,9 C 16,1 km/h
17.04.2021 14:51 8,2 C 67 % 1018,0 hPa 0,0 l/m 11,2 km/h W-NW 300 0 min 1,9 UV-I 223 W/m 2,4 C 4,9 C 19,3 km/h
17.04.2021 14:48 8,3 C 66 % 1018,0 hPa 0,0 l/m 9,4 km/h NW 317 0 min 1,7 UV-I 199 W/m 2,3 C 6,1 C 17,7 km/h
17.04.2021 14:45 8,4 C 66 % 1018,2 hPa 0,0 l/m 9,8 km/h W-NW 302 0 min 1,8 UV-I 206 W/m 2,4 C 6,0 C 17,7 km/h
17.04.2021 14:42 8,4 C 67 % 1018,1 hPa 0,0 l/m 9,9 km/h N-NW 348 0 min 1,9 UV-I 230 W/m 2,6 C 5,9 C 17,7 km/h
17.04.2021 14:39 8,3 C 67 % 1018,2 hPa 0,0 l/m 9,1 km/h N-NW 342 0 min 2,6 UV-I 345 W/m 2,5 C 6,3 C 14,5 km/h
17.04.2021 14:36 8,2 C 67 % 1018,2 hPa 0,0 l/m 10,9 km/h W-NW 299 3 min 3,0 UV-I 418 W/m 2,4 C 5,1 C 16,1 km/h
17.04.2021 14:33 8,1 C 68 % 1018,2 hPa 0,0 l/m 11,0 km/h W-NW 292 3 min 3,4 UV-I 492 W/m 2,6 C 4,9 C 16,1 km/h
17.04.2021 14:30 7,9 C 69 % 1018,3 hPa 0,0 l/m 10,3 km/h N-NW 329 3 min 3,4 UV-I 480 W/m 2,6 C 5,1 C 17,7 km/h
17.04.2021 14:27 7,7 C 70 % 1018,4 hPa 0,0 l/m 9,5 km/h NW 321 3 min 3,4 UV-I 455 W/m 2,6 C 5,4 C 14,5 km/h
17.04.2021 14:24 7,6 C 69 % 1018,4 hPa 0,0 l/m 6,8 km/h W-NW 295 3 min 3,4 UV-I 439 W/m 2,3 C 7,3 C 14,5 km/h
17.04.2021 14:21 7,6 C 69 % 1018,3 hPa 0,0 l/m 12,2 km/h W-NW 291 0 min 2,6 UV-I 311 W/m 2,3 C 3,6 C 17,7 km/h
17.04.2021 14:18 7,7 C 68 % 1018,4 hPa 0,0 l/m 9,2 km/h N-NW 333 0 min 1,9 UV-I 225 W/m 2,2 C 5,6 C 22,5 km/h
17.04.2021 14:15 7,7 C 69 % 1018,4 hPa 0,0 l/m 11,2 km/h W-NW 296 0 min 1,8 UV-I 214 W/m 2,4 C 4,3 C 17,7 km/h
17.04.2021 14:12 7,7 C 69 % 1018,5 hPa 0,0 l/m 7,2 km/h W-NW 286 0 min 2,0 UV-I 244 W/m 2,4 C 7,1 C 16,1 km/h
17.04.2021 14:09 7,7 C 69 % 1018,4 hPa 0,0 l/m 7,3 km/h NW 304 0 min 2,5 UV-I 316 W/m 2,4 C 7,0 C 11,3 km/h
17.04.2021 14:06 7,7 C 68 % 1018,5 hPa 0,0 l/m 9,4 km/h W-NW 302 0 min 2,6 UV-I 315 W/m 2,2 C 5,4 C 16,1 km/h
17.04.2021 14:03 7,7 C 69 % 1018,5 hPa 0,0 l/m 7,8 km/h W-NW 292 0 min 2,7 UV-I 330 W/m 2,4 C 6,6 C 12,9 km/h
17.04.2021 14:00 7,6 C 70 % 1018,5 hPa 0,0 l/m 5,3 km/h N 350 0 min 2,7 UV-I 323 W/m 2,5 C 7,6 C 9,7 km/h
17.04.2021 13:57 7,6 C 70 % 1018,5 hPa 0,0 l/m 5,1 km/h N 350 0 min 2,4 UV-I 278 W/m 2,5 C 7,6 C 8,0 km/h
17.04.2021 13:54 7,4 C 70 % 1018,5 hPa 0,0 l/m 8,5 km/h N 355 0 min 2,4 UV-I 274 W/m 2,3 C 5,8 C 12,9 km/h
17.04.2021 13:51 7,4 C 70 % 1018,5 hPa 0,0 l/m 10,8 km/h N 10 0 min 2,2 UV-I 262 W/m 2,3 C 4,2 C 19,3 km/h
17.04.2021 13:48 7,3 C 71 % 1018,5 hPa 0,0 l/m 11,2 km/h NW 319 0 min 2,5 UV-I 295 W/m 2,4 C 3,9 C 16,1 km/h
17.04.2021 13:45 7,3 C 70 % 1018,5 hPa 0,0 l/m 10,9 km/h N-NO 17 0 min 2,4 UV-I 278 W/m 2,2 C 4,0 C 17,7 km/h
17.04.2021 13:42 7,3 C 69 % 1018,5 hPa 0,0 l/m 10,0 km/h N-NW 330 0 min 2,0 UV-I 243 W/m 2,0 C 4,6 C 17,7 km/h
17.04.2021 13:39 7,3 C 70 % 1018,5 hPa 0,0 l/m 11,7 km/h N 10 0 min 1,7 UV-I 183 W/m 2,2 C 3,6 C 17,7 km/h
17.04.2021 13:36 7,3 C 70 % 1018,5 hPa 0,0 l/m 11,9 km/h NW 315 0 min 1,6 UV-I 163 W/m 2,2 C 3,5 C 19,3 km/h
17.04.2021 13:33 7,3 C 70 % 1018,5 hPa 0,0 l/m 7,9 km/h NW 309 0 min 1,6 UV-I 169 W/m 2,2 C 6,1 C 14,5 km/h
17.04.2021 13:30 7,3 C 71 % 1018,5 hPa 0,0 l/m 8,9 km/h N-NW 348 0 min 1,8 UV-I 188 W/m 2,4 C 5,4 C 14,5 km/h
17.04.2021 13:27 7,3 C 70 % 1018,4 hPa 0,0 l/m 12,5 km/h N 355 0 min 2,2 UV-I 253 W/m 2,2 C 3,1 C 22,5 km/h
17.04.2021 13:24 7,2 C 70 % 1018,5 hPa 0,0 l/m 10,3 km/h N 355 0 min 2,5 UV-I 290 W/m 2,1 C 4,3 C 17,7 km/h
17.04.2021 13:21 7,2 C 70 % 1018,5 hPa 0,0 l/m 11,3 km/h NW 326 0 min 2,0 UV-I 225 W/m 2,1 C 3,7 C 16,1 km/h
17.04.2021 13:18 7,2 C 70 % 1018,6 hPa 0,0 l/m 13,1 km/h N-NW 346 0 min 1,7 UV-I 185 W/m 2,1 C 2,7 C 20,9 km/h
17.04.2021 13:15 7,2 C 71 % 1018,6 hPa 0,0 l/m 7,4 km/h N-NW 338 0 min 1,8 UV-I 197 W/m 2,3 C 6,4 C 19,3 km/h
17.04.2021 13:12 7,1 C 71 % 1018,5 hPa 0,0 l/m 7,4 km/h NW 325 0 min 1,9 UV-I 214 W/m 2,2 C 6,3 C 12,9 km/h
17.04.2021 13:09 7,1 C 70 % 1018,5 hPa 0,0 l/m 8,0 km/h NW 317 0 min 2,2 UV-I 272 W/m 2,0 C 5,8 C 12,9 km/h
17.04.2021 13:06 7,1 C 70 % 1018,4 hPa 0,0 l/m 10,7 km/h N 355 0 min 2,0 UV-I 248 W/m 2,0 C 3,9 C 22,5 km/h
17.04.2021 13:03 7,1 C 70 % 1018,5 hPa 0,0 l/m 10,7 km/h NW 309 0 min 1,7 UV-I 181 W/m 2,0 C 3,9 C 17,7 km/h
17.04.2021 13:00 7,2 C 69 % 1018,5 hPa 0,0 l/m 11,8 km/h N-NW 341 0 min 1,7 UV-I 179 W/m 1,9 C 3,4 C 20,9 km/h
17.04.2021 12:57 7,3 C 69 % 1018,6 hPa 0,0 l/m 11,3 km/h W-NW 301 0 min 1,8 UV-I 200 W/m 2,0 C 3,8 C 19,3 km/h
17.04.2021 12:54 7,4 C 69 % 1018,6 hPa 0,0 l/m 14,5 km/h NW 314 0 min 1,9 UV-I 218 W/m 2,1 C 2,2 C 20,9 km/h
17.04.2021 12:51 7,5 C 70 % 1018,6 hPa 0,0 l/m 10,3 km/h W-NW 289 0 min 2,1 UV-I 265 W/m 2,4 C 4,6 C 19,3 km/h
17.04.2021 12:48 7,4 C 70 % 1018,6 hPa 0,0 l/m 9,8 km/h N-NW 344 0 min 2,2 UV-I 276 W/m 2,3 C 4,9 C 17,7 km/h
17.04.2021 12:45 7,4 C 71 % 1018,7 hPa 0,0 l/m 9,7 km/h NW 309 0 min 3,0 UV-I 424 W/m 2,5 C 4,9 C 17,7 km/h
17.04.2021 12:42 7,3 C 71 % 1018,7 hPa 0,0 l/m 9,1 km/h W-NW 293 0 min 3,1 UV-I 385 W/m 2,4 C 5,2 C 16,1 km/h
17.04.2021 12:39 7,3 C 71 % 1018,8 hPa 0,0 l/m 6,6 km/h NW 308 0 min 2,5 UV-I 295 W/m 2,4 C 7,2 C 14,5 km/h
17.04.2021 12:36 7,3 C 71 % 1018,8 hPa 0,0 l/m 7,9 km/h W-NW 296 0 min 2,1 UV-I 246 W/m 2,4 C 6,1 C 14,5 km/h
17.04.2021 12:33 7,3 C 72 % 1018,8 hPa 0,0 l/m 8,1 km/h N-NW 331 0 min 2,7 UV-I 329 W/m 2,6 C 5,9 C 16,1 km/h
17.04.2021 12:30 7,2 C 71 % 1018,8 hPa 0,0 l/m 7,1 km/h NW 311 0 min 2,9 UV-I 320 W/m 2,3 C 6,6 C 14,5 km/h
17.04.2021 12:27 7,2 C 72 % 1018,8 hPa 0,0 l/m 8,1 km/h NW 309 0 min 2,1 UV-I 236 W/m 2,5 C 5,8 C 16,1 km/h
17.04.2021 12:24 7,1 C 72 % 1018,8 hPa 0,0 l/m 6,4 km/h NW 309 0 min 2,0 UV-I 229 W/m 2,4 C 7,1 C 9,7 km/h
17.04.2021 12:21 7,1 C 71 % 1018,8 hPa 0,0 l/m 10,0 km/h NW 312 0 min 2,5 UV-I 294 W/m 2,2 C 4,4 C 17,7 km/h
17.04.2021 12:18 6,9 C 71 % 1018,9 hPa 0,0 l/m 10,3 km/h N-NW 342 0 min 2,8 UV-I 348 W/m 2,0 C 4,0 C 17,7 km/h
17.04.2021 12:15 6,9 C 71 % 1018,9 hPa 0,0 l/m 13,4 km/h NW 317 0 min 2,7 UV-I 330 W/m 2,0 C 2,2 C 25,7 km/h
17.04.2021 12:12 7,0 C 71 % 1018,9 hPa 0,0 l/m 12,0 km/h W-NW 293 0 min 2,6 UV-I 327 W/m 2,1 C 3,1 C 19,3 km/h
17.04.2021 12:09 7,0 C 70 % 1018,9 hPa 0,0 l/m 11,6 km/h NW 323 0 min 2,5 UV-I 308 W/m 1,9 C 3,3 C 16,1 km/h
17.04.2021 12:06 7,1 C 71 % 1018,9 hPa 0,0 l/m 10,9 km/h W-NW 300 0 min 2,4 UV-I 302 W/m 2,2 C 3,8 C 19,3 km/h
17.04.2021 12:03 7,2 C 71 % 1019,0 hPa 0,0 l/m 6,8 km/h NW 323 0 min 2,2 UV-I 272 W/m 2,3 C 6,9 C 12,9 km/h
17.04.2021 12:00 7,2 C 71 % 1019,0 hPa 0,0 l/m 10,2 km/h NW 306 0 min 2,2 UV-I 287 W/m 2,3 C 4,4 C 19,3 km/h
_ Min-Zeit 02:42 17:42 15:15 - 05:18 - - - - - 18:30 02:21 19:30
Minimum _ 3,6 C 60 % 1017,9 hPa - 1,2 km/h - - - - - -0,4 C 0,9 C 4,8 km/h
_ Max-Zeit 14:42 06:00 21:15 17:00 12:54 - - 17:15 14:24 14:33 11:45 13:57 12:15
Maximum _ 8,4 C 83 % 1021,5 hPa 0,0 l/m 14,5 km/h
NW
- - 3 min 3,4 UV-I 492 W/m 2,7 C 7,6 C 25,7 km/h
W
Durchschnitt _ 5,4 C 74 % 1019,9 hPa #0,0 l/m 6,9 km/h NW - #39 min. 1,7 UV-I 181 W/m 1,0 C 4,4 C 12,0 km/h
Schulla EDV